Home > Weather > Santos > Past weeks

Flag for Brazil Weather for the Past 2 Weeks in Santos, São Paulo, Brazil

Now
73 °F

Passing clouds.


Feels Like: 74 °F
Forecast: 73 / 87 °F
Wind: 9 mph from Southeast

Location: Sao Paulo Airport

Current Time: Feb 6, 2016 at 10:39:21 PM

Latest Report: Feb 6, 2016 at 10:00 PM


Visibility: N/A

Pressure: 30.18 "Hg

Humidity: 78%

Dew point: 66 °F

Location of SantosLocation

Historic Weather in Santos — Graph

°F

Santos Temperature Yesterday

Maximum temperature yesterday: 91 °F (at 3:00 PM)
Minimum temperature yesterday: 72 °F (at 5:00 PM)
Average temperature yesterday: 78 °F

High & Low Weather Summary for the Past Weeks

 TemperatureHumidityPressure
High91 °F (Feb 5, 3:00 PM)89% (Jan 24, 3:00 PM)30.18 "Hg (Jan 24, 3:00 PM)
Low64 °F (Jan 22, 11:00 PM)27% (Jan 31, 3:00 PM)29.86 "Hg (Jan 26, 6:00 PM)
Average76 °F69%30.06 "Hg
* Reported Jan 22 9:00 PM — Feb 6 9:00 PM, Santos, Weather by CustomWeather, © 2016

Note: Actual official high and low records may vary slightly from our data, if they occured in-between our weather recording intervals... More about our weather records

Advertising

Santos Weather History for the Previous 24 Hours

 ConditionsComfort  
Time TempWeatherWind HumidityBarometerVisibility
9:00 PM
Sat, Feb 6
73 °FPassing clouds.9 mph78%30.15 "HgN/A
8:00 PM73 °FPartly cloudy.9 mph78%30.15 "HgN/A
7:00 PM75 °FPartly sunny.14 mph78%30.12 "HgN/A
6:00 PM77 °FScattered clouds.18 mph74%30.09 "HgN/A
5:00 PM81 °FScattered clouds.9 mph66%30.09 "HgN/A
4:00 PM84 °FScattered clouds.10 mph55%30.12 "HgN/A
3:00 PM82 °FScattered clouds.7 mph58%30.15 "HgN/A
2:00 PM82 °FPartly sunny.5 mph62%30.15 "HgN/A
1:00 PM79 °FPartly sunny.10 mph70%30.18 "HgN/A
12:00 PM77 °FPartly sunny.10 mph74%N/AN/A
11:00 AM77 °FBroken clouds.10 mph74%30.18 "HgN/A
10:00 AM75 °FBroken clouds.10 mph74%30.18 "HgN/A
9:00 AM73 °FPartly sunny.10 mph83%30.18 "HgN/A
8:00 AM72 °FBroken clouds.9 mph88%30.15 "HgN/A
7:00 AM72 °FBroken clouds.6 mph88%30.15 "Hg4 mi
6:00 AM72 °FPassing clouds.5 mph88%30.12 "HgN/A
5:00 AM72 °FPassing clouds.5 mph88%30.09 "HgN/A
4:00 AM70 °FClear.2 mph88%30.09 "Hg10 mi
3:00 AM72 °FPassing clouds.3 mph83%30.12 "HgN/A
2:00 AM72 °FPassing clouds.7 mph83%30.15 "HgN/A
1:00 AM73 °FClear.2 mph83%30.15 "Hg10 mi
12:00 AM73 °FPassing clouds.3 mph83%30.15 "HgN/A
11:00 PM
Fri, Feb 5
73 °FLight rain. Clear.12 mph83%30.15 "Hg10 mi
10:00 PM72 °FLight rain. Clear.5 mph88%30.15 "Hg5 mi
Weather by CustomWeather, © 2016

See weather overviewHow to use our weather pages